Showing default

DB-PRECISIONFLIGHTWORKSP, 68466

Orbit data source: Space-Track

DB-PRECISIONFLIGHTWORKSP, 68466 is a payload satellite owned by NearSpaceLaunch (US) in SSO that was launched on Mon, 30 Mar 2026 UTC via an FALCON 9 launch vehicle from the Air Force Western Test Range (AFWTR). Payload-class satellites include a variety of spacecraft equipped with specific instruments for various scientific and technological missions. These include communications satellites like Starlink; space stations such as the ISS; scientific satellites like the Hubble; Earth observation satellites from companies like Planet Labs, Umbra, and HawkEye 360; GPS; miniature CubeSats for education and research; and military/defense satellites.

Loading next visibility...
Identifier
68466, 2026-067BC
Orbit
SSO
Country
Flag of USUS
Related business
Manufacturer
NearSpaceLaunch
Mission
Operational Commercial Technology
Bus & Motor
THINSAT 0.5U, Unknown motor
Mass
0.5 kg wet, 0.5 kg dry
Launch date (UTC)
2026-03-30 (5 months ago)
Launch vehicle
FALCON 9
Launch site
Air Force Western Test Range (AFWTR)
Object type
Payload
Rocket body
Debris
Shape & HBR
Box + 2 Pan, 0.2 m
Radar Cross Section
0.017 m², Medium (>0.1 m² and < 1m²)

Expand to show TLE details & history
Last TLE update: 14 hours ago

TLE from 14 hours ago
0 DB-PRECISIONFLIGHTWORKSP
1 68466U 26067BC  26228.50635709  .00004525  00000-0  22387-3 0  9997
2 68466  97.4534 185.8709 0004493 214.1600 145.9346 15.18303795 20934
Epoch: 2026-08-16T12:09Z
TLE epoch observation values (Epoch: 2026-08-16T12:09:09.252Z)
Latitude
0.00002°
Longitude
38.68045°
Altitude
516.618 km
Speed
7.604 km/s
True Right ascension
12h 23m 29s
True Declination
0° 00' 00"
Sunlit
Object was in daylight at epoch
Visualization orbit readout
Latitude
Unknown
Longitude
Unknown
Altitude
Unknown
Speed
Unknown
Apparent Right ascension
Unknown
Apparent Declination
Unknown
Sunlit
N/A
Visualization observer readout
Local Sidereal Time
16:50:52
Azimuth
Unknown
Elevation
Unknown
Doppler factor
Unknown
Orbital elements
Apogee altitude
511.031 km
Perigee altitude
504.843 km
Semi-major axis
6,886.074 km
Eccentricity
0.00045
Inclination
97.4534°
RAAN
185.8709°
Arg. of periapsis
214.16°
True anomaly
145.96343°
Mean anomaly
145.9346°
Eccentric anomaly
145.94901°
Mean motion
3.79827 °/min
Orbital period
94.78 mins
BSTAR
0.00022387
Loading maneuver chart data...
Computing Atmospheric mass density...
Loading historical data...
Loading historical data...
Loading historical data...
Loading historical data...
Loading historical data...
Loading historical data...
Loading historical data...

Documentation

Showing up to 5 results
|